Location: Presov
(49.0000°N, 21.2500°E)
Time: 13:26:14
(UTC+02:00)

ISS - Pass Details

Date: 08 July 2022
Orbit: 412 x 420 km, 51.6° (Epoch: 18 August)

Event Time Altitude Azimuth Distance (km) Brightness Sun altitude
Exits shadow 00:55:41 61° 142° (SE) 477 -3.8 -18.4°
Drops below altitude 10° 00:58:55 10° 73° (ENE) 1,501 -0.7 -18.4°
Sets 01:01:02 0° 70° (ENE) 2,369 0.4 -18.3°
